Location: Bassano
(45.7667°N, 11.7333°E)
Time: 19:09:04
(UTC+00:00)

In-Cosmos 22 Rocket - Pass Details

Date: 07 June 2020
Orbit: 790 x 889 km, 81.2° (Epoch: 02 July)

Event Time Altitude Azimuth Distance (km) Brightness Sun altitude
Exits shadow 01:31:04 19° 189° (S) 1,928 5.5 -14.5°
Maximum altitude 01:35:15 90° 281° (WNW) 840 4.2 -14.1°
Drops below altitude 10° 01:40:45 10° 11° (N) 2,421 7.7 -13.6°
Sets 01:43:07 0° 11° (NNE) 3,344 8.6 -13.3°
